,,Stat1,,Stat2,,Stat3,,Stat4,,Wind1,,Wind1,
time,status,PR1M_SUM,status,RH1M_AVG,status,SR1M_AVG,status,TA1M_AVG,status,W1dAve1m,status,W1sAve1m,
2000-01-27, 10:05:00,VALID,0,VALID,73.0219,VALID,353.558,VALID,22.0932,VALID,210,VALID,1.32236,
2000-01-27, 10:06:00,VALID,0,VALID,73.4466,VALID,346.766,VALID,22.1097,VALID,205,VALID,1.58814,
2000-01-27, 10:07:00,VALID,0,VALID,72.4153,VALID,330.124,VALID,22.1062,VALID,206,VALID,1.59663,
2000-01-27, 10:08:00,VALID,0,VALID,71.9703,VALID,311.615,VALID,22.0835,VALID,204,VALID,1.42363,
2000-01-27, 10:09:00,VALID,0,VALID,71.5303,VALID,300.934,VALID,22.1029,VALID,246,VALID,0.746995,
2000-01-27, 10:10:00,VALID,0,VALID,69.8403,VALID,304.161,VALID,22.1259,VALID,215,VALID,0.69634,
2000-01-27, 10:11:00,VALID,0,VALID,70.6592,VALID,323.23,VALID,22.195,VALID,126,VALID,0.325247,
2000-01-27, 10:12:00,VALID,0,VALID,69.8836,VALID,343.488,VALID,22.2979,VALID,266,VALID,0.603299,
2000-01-27, 10:13:00,VALID,0,VALID,70.8042,VALID,347.445,VALID,22.3273,VALID,298,VALID,1.10877,
2000-01-27, 10:14:00,VALID,0,VALID,71.1336,VALID,327.849,VALID,22.295,VALID,280,VALID,1.26663,
2000-01-27, 10:15:00,VALID,0,VALID,70.8322,VALID,328.409,VALID,22.3435,VALID,276,VALID,0.996205,
2000-01-27, 10:16:00,VALID,0,VALID,70.8589,VALID,353.49,VALID,22.4499,VALID,245,VALID,0.893945,
2000-01-27, 10:17:00,VALID,0,VALID,68.8803,VALID,385.991,VALID,22.5798,VALID,221,VALID,0.692708,
2000-01-27, 10:18:00,VALID,0,VALID,69.7653,VALID,391.187,VALID,22.66,VALID,193,VALID,0.625,
2000-01-27, 10:19:00,VALID,0,VALID,70.3553,VALID,414.842,VALID,22.7373,VALID,222,VALID,0.765008,
2000-01-27, 10:20:00,VALID,0,VALID,71.3968,VALID,444.49,VALID,22.812,VALID,236,VALID,1.47023,
2000-01-27, 10:21:00,VALID,0,VALID,69.2986,VALID,457.616,VALID,22.8287,VALID,229,VALID,2.44552,
2000-01-27, 10:22:01,VALID,0,VALID,70.2536,VALID,465.835,VALID,22.7573,VALID,229,VALID,1.9381,
2000-01-27, 10:23:00,VALID,0,VALID,70.9733,VALID,466.022,VALID,22.712,VALID,252,VALID,1.10156,
2000-01-27, 10:24:00,VALID,0,VALID,70.5728,VALID,457.022,VALID,22.7605,VALID,223,VALID,1.28011,
2000-01-27, 10:25:00,VALID,0,VALID,70.2549,VALID,454.152,VALID,22.8125,VALID,218,VALID,0.770148,
2000-01-27, 10:26:00,VALID,0,VALID,69.7679,VALID,460.758,VALID,22.8637,VALID,242,VALID,1.62402,
2000-01-27, 10:27:00,VALID,0,VALID,72.0351,VALID,647.938,VALID,22.8631,VALID,205,VALID,1.78653,
2000-01-27, 10:28:00,VALID,0,VALID,69.6115,VALID,747.377,VALID,22.8702,VALID,220,VALID,1.61799,
2000-01-27, 10:29:00,VALID,0,VALID,70.2765,VALID,667.466,VALID,22.9475,VALID,205,VALID,1.94489,
2000-01-27, 10:30:00,VALID,0,VALID,69.3037,VALID,524.011,VALID,22.919,VALID,237,VALID,2.12676,
2000-01-27, 10:31:00,VALID,0,VALID,70.6732,VALID,615.929,VALID,22.8928,VALID,235,VALID,1.91016,
2000-01-27, 10:32:01,VALID,0,VALID,70.1506,VALID,543.556,VALID,22.9375,VALID,234,VALID,1.29746,
2000-01-27, 10:33:01,VALID,0,VALID,68.6844,VALID,501.223,VALID,22.9895,VALID,189,VALID,1.73796,
2000-01-27, 10:34:00,VALID,0,VALID,69.0952,VALID,477.501,VALID,22.9249,VALID,263,VALID,1.74159,
2000-01-27, 10:35:00,VALID,0,VALID,68.3195,VALID,462.711,VALID,22.8599,VALID,276,VALID,1.80342,
2000-01-27, 10:36:00,VALID,0,VALID,68.6043,VALID,463.882,VALID,22.9119,VALID,249,VALID,1.82051,
2000-01-27, 10:37:00,VALID,0,VALID,70.0413,VALID,481.084,VALID,22.941,VALID,218,VALID,1.14988,
2000-01-27, 10:38:00,VALID,0,VALID,69.4919,VALID,540.279,VALID,22.9566,VALID,237,VALID,2.08437,
2000-01-27, 10:39:00,VALID,0,VALID,67.8503,VALID,888.624,VALID,22.9369,VALID,253,VALID,2.07538,
2000-01-27, 10:40:00,VALID,0,VALID,69.2796,VALID,776.33,VALID,23.0248,VALID,246,VALID,1.11879,
2000-01-27, 10:41:00,VALID,0,VALID,68.8726,VALID,673.613,VALID,23.1506,VALID,213,VALID,3.17166,
2000-01-27, 10:42:00,VALID,0,VALID,69.8861,VALID,573.273,VALID,23.0636,VALID,219,VALID,1.99395,
2000-01-27, 10:43:00,VALID,0,VALID,69.3635,VALID,502.327,VALID,23.0275,VALID,218,VALID,1.90707,
2000-01-27, 10:44:01,VALID,0,VALID,69.8238,VALID,480.829,VALID,23.0148,VALID,227,VALID,1.58359,
2000-01-27, 10:45:00,VALID,0,VALID,69.5479,VALID,476.007,VALID,23.0019,VALID,179,VALID,1.48395,
2000-01-27, 10:46:00,VALID,0,VALID,70.7254,VALID,450.196,VALID,22.986,VALID,177,VALID,1.63281,
2000-01-27, 10:47:00,VALID,0,VALID,69.9217,VALID,460.775,VALID,22.9989,VALID,201,VALID,1.08573,
2000-01-27, 10:48:00,VALID,0,VALID,68.2445,VALID,480.999,VALID,23.0089,VALID,231,VALID,2.49043,
2000-01-27, 10:49:00,VALID,0,VALID,68.219,VALID,513.568,VALID,23.0013,VALID,226,VALID,1.53104,
2000-01-27, 10:50:00,VALID,0,VALID,68.0626,VALID,548.803,VALID,23.021,VALID,232,VALID,2.71914,
2000-01-27, 10:51:00,VALID,0,VALID,68.4594,VALID,554.934,VALID,23.0078,VALID,201,VALID,1.51626,
2000-01-27, 10:52:00,VALID,0,VALID,68.5166,VALID,543.438,VALID,23.0956,VALID,173,VALID,1.45773,
2000-01-27, 10:53:00,VALID,0,VALID,67.0021,VALID,542.249,VALID,23.076,VALID,112,VALID,2.22002,
2000-01-27, 10:54:00,VALID,0,VALID,69.3304,VALID,593.752,VALID,23.1115,VALID,92,VALID,1.7334,
2000-01-27, 10:55:01,VALID,0,VALID,68.818,VALID,611.327,VALID,23.2994,VALID,135,VALID,1.81086,
2000-01-27, 10:56:00,VALID,0,VALID,68.013,VALID,612.957,VALID,23.409,VALID,205,VALID,1.68633,
2000-01-27, 10:57:00,VALID,0,VALID,67.3556,VALID,607.201,VALID,23.4378,VALID,215,VALID,2.05933,
2000-01-27, 10:58:00,VALID,0,VALID,69.7373,VALID,598.608,VALID,23.4511,VALID,196,VALID,1.28846,
2000-01-27, 10:59:00,VALID,0,VALID,66.2824,VALID,587.859,VALID,23.4834,VALID,109,VALID,1.85853,
2000-01-27, 11:00:00,VALID,0,VALID,66.8432,VALID,590.797,VALID,23.5222,VALID,105,VALID,1.47891,
2000-01-27, 11:01:00,VALID,0,VALID,66.9334,VALID,567.975,VALID,23.4757,VALID,123,VALID,3.15831,
2000-01-27, 11:02:00,VALID,0,VALID,68.1516,VALID,544.541,VALID,23.3964,VALID,94,VALID,1.52168,
2000-01-27, 11:03:00,VALID,0,VALID,66.8978,VALID,548.871,VALID,23.5304,VALID,180,VALID,0.886191,
2000-01-27, 11:04:00,VALID,0,VALID,66.8037,VALID,565.394,VALID,23.6956,VALID,200,VALID,1.02384,
2000-01-27, 11:05:00,VALID,0,VALID,68.8078,VALID,615.946,VALID,23.768,VALID,202,VALID,0.897804,
2000-01-27, 11:06:01,VALID,0,VALID,67.4561,VALID,577.603,VALID,23.8647,VALID,147,VALID,0.827148,
2000-01-27, 11:07:00,VALID,0,VALID,65.5588,VALID,547.853,VALID,23.8612,VALID,139,VALID,1.24424,
2000-01-27, 11:08:00,VALID,0,VALID,67.7613,VALID,541.706,VALID,23.7968,VALID,133,VALID,1.40332,
2000-01-27, 11:09:00,VALID,0,VALID,67.1395,VALID,596.214,VALID,23.7295,VALID,218,VALID,1.95144,
2000-01-27, 11:10:00,VALID,0,VALID,65.0108,VALID,624.844,VALID,23.748,VALID,235,VALID,2.43269,
2000-01-27, 11:11:00,VALID,0,VALID,64.2326,VALID,529.666,VALID,23.6251,VALID,243,VALID,2.88872,
2000-01-27, 11:12:00,VALID,0,VALID,65.7826,VALID,559.467,VALID,23.4887,VALID,258,VALID,1.73398,
2000-01-27, 11:13:00,VALID,0,VALID,66.2671,VALID,620.649,VALID,23.3047,VALID,274,VALID,1.33433,
2000-01-27, 11:14:00,VALID,0,VALID,69.23,VALID,643.54,VALID,23.4605,VALID,216,VALID,0.971289,
2000-01-27, 11:15:00,VALID,0,VALID,68.8307,VALID,590.135,VALID,23.7474,VALID,219,VALID,0.76098,
2000-01-27, 11:16:01,VALID,0,VALID,66.9818,VALID,557.956,VALID,23.9158,VALID,235,VALID,1.60016,
2000-01-27, 11:17:01,VALID,0,VALID,65.3923,VALID,552.047,VALID,23.8082,VALID,205,VALID,2.19024,
2000-01-27, 11:18:00,VALID,0,VALID,67.3518,VALID,514.129,VALID,23.6859,VALID,232,VALID,1.32168,
2000-01-27, 11:19:00,VALID,0,VALID,65.6707,VALID,486.042,VALID,23.6442,VALID,232,VALID,2.83203,
2000-01-27, 11:20:00,VALID,0,VALID,67.7295,VALID,486.365,VALID,23.4981,VALID,205,VALID,1.84277,
2000-01-27, 11:21:00,VALID,0,VALID,67.4345,VALID,489.184,VALID,23.4784,VALID,218,VALID,1.82707,
2000-01-27, 11:22:00,VALID,0,VALID,68.5357,VALID,458.414,VALID,23.4787,VALID,147,VALID,1.09956,
2000-01-27, 11:23:00,VALID,0,VALID,68.2483,VALID,456.835,VALID,23.5248,VALID,132,VALID,1.51309,
2000-01-27, 11:24:00,VALID,0,VALID,69.3991,VALID,458.431,VALID,23.5892,VALID,223,VALID,1.54414,
2000-01-27, 11:25:00,VALID,0,VALID,65.1354,VALID,459.994,VALID,23.6798,VALID,222,VALID,1.54256,
2000-01-27, 11:26:01,VALID,0,VALID,65.7992,VALID,504.908,VALID,23.7215,VALID,255,VALID,1.13926,
2000-01-27, 11:27:00,VALID,0,VALID,66.6524,VALID,542.979,VALID,23.7474,VALID,224,VALID,0.716639,
2000-01-27, 11:28:01,VALID,0,VALID,66.9932,VALID,608.627,VALID,23.9191,VALID,106,VALID,1.8105,
2000-01-27, 11:29:00,VALID,0,VALID,64.7081,VALID,552.471,VALID,23.9482,VALID,133,VALID,1.63872,
2000-01-27, 11:30:00,VALID,0,VALID,67.2437,VALID,731.636,VALID,23.8182,VALID,113,VALID,2.76934,
2000-01-27, 11:31:00,VALID,0,VALID,67.5362,VALID,838.378,VALID,23.748,VALID,98,VALID,2.1141,
2000-01-27, 11:32:00,VALID,0,VALID,67.1992,VALID,844.728,VALID,23.9343,VALID,123,VALID,1.41719,
2000-01-27, 11:33:00,VALID,0,VALID,67.7473,VALID,677.79,VALID,24.2484,VALID,140,VALID,1.47044,
2000-01-27, 11:34:00,VALID,0,VALID,64.8798,VALID,546.341,VALID,24.4169,VALID,182,VALID,1.17448,
2000-01-27, 11:35:00,VALID,0,VALID,62.4307,VALID,546.443,VALID,24.5201,VALID,209,VALID,1.49409,
2000-01-27, 11:36:00,VALID,0,VALID,62.3976,VALID,524.538,VALID,24.3875,VALID,204,VALID,2.09941,
2000-01-27, 11:37:00,VALID,0,VALID,63.3348,VALID,559.892,VALID,24.1319,VALID,231,VALID,2.04955,
2000-01-27, 11:38:01,VALID,0,VALID,64.3432,VALID,626.847,VALID,23.9641,VALID,186,VALID,2.34258,
2000-01-27, 11:39:00,VALID,0,VALID,64.1207,VALID,671.456,VALID,23.76,VALID,177,VALID,1.86318,
2000-01-27, 11:40:00,VALID,0,VALID,65.2689,VALID,657.922,VALID,23.6924,VALID,224,VALID,0.977965,
2000-01-27, 11:41:00,VALID,0,VALID,65.0273,VALID,750.298,VALID,23.8085,VALID,204,VALID,1.61085,
2000-01-27, 11:42:00,VALID,0,VALID,67.0466,VALID,524.979,VALID,23.8894,VALID,206,VALID,1.77422,
2000-01-27, 11:43:00,VALID,0,VALID,66.8597,VALID,582.103,VALID,23.8503,VALID,132,VALID,2.11616,
2000-01-27, 11:44:00,VALID,0,VALID,66.7414,VALID,592.105,VALID,23.8441,VALID,172,VALID,1.86914,
2000-01-27, 11:45:00,VALID,0,VALID,64.4958,VALID,604.823,VALID,23.8144,VALID,180,VALID,2.00971,
2000-01-27, 11:46:00,VALID,0,VALID,64.595,VALID,506.47,VALID,23.7015,VALID,121,VALID,2.01883,
2000-01-27, 11:47:00,VALID,0,VALID,66.6155,VALID,524.096,VALID,23.7044,VALID,154,VALID,0.962627,
2000-01-27, 11:48:00,VALID,0,VALID,65.3414,VALID,644.287,VALID,23.8958,VALID,192,VALID,1.21934,
2000-01-27, 11:49:00,VALID,0,VALID,64.4335,VALID,568.247,VALID,23.9861,VALID,186,VALID,1.60567,
2000-01-27, 11:50:00,VALID,0,VALID,62.1509,VALID,684.531,VALID,23.9149,VALID,182,VALID,1.60547,
2000-01-27, 11:51:00,VALID,0,VALID,63.3094,VALID,906.657,VALID,23.8988,VALID,229,VALID,1.43919,
2000-01-27, 11:52:00,VALID,0,VALID,62.1497,VALID,522.093,VALID,24.0569,VALID,219,VALID,0.880008,
2000-01-27, 11:53:00,VALID,0,VALID,63.331,VALID,446.188,VALID,24.1928,VALID,186,VALID,0.288429,
2000-01-27, 11:54:00,VALID,0,VALID,63.4607,VALID,421.04,VALID,24.3519,VALID,183,VALID,0.0798828,
2000-01-27, 11:55:00,VALID,0,VALID,63.1428,VALID,402.344,VALID,24.5362,VALID,146,VALID,0.626028,
2000-01-27, 11:56:00,VALID,0,VALID,63.2865,VALID,457.718,VALID,24.7103,VALID,203,VALID,0.000390625,
2000-01-27, 11:57:00,VALID,0,VALID,63.8714,VALID,483.427,VALID,24.8591,VALID,207,VALID,1.37479,
2000-01-27, 11:58:00,VALID,0,VALID,63.7468,VALID,476.72,VALID,24.8138,VALID,106,VALID,1.54387,
2000-01-27, 11:59:00,VALID,0,VALID,63.0525,VALID,473.307,VALID,24.6165,VALID,108,VALID,1.56546,
2000-01-27, 12:00:00,VALID,0,VALID,64.9447,VALID,463.084,VALID,24.5324,VALID,138,VALID,0.895508,
2000-01-27, 12:01:00,VALID,0,VALID,65.5983,VALID,456.767,VALID,24.5942,VALID,31,VALID,0.0115132,
2000-01-27, 12:02:00,VALID,0,VALID,62.3201,VALID,439.685,VALID,24.7232,VALID,237,VALID,1.44414,
2000-01-27, 12:03:00,VALID,0,VALID,62.98,VALID,572.628,VALID,24.7168,VALID,229,VALID,1.43285,
2000-01-27, 12:04:00,VALID,0,VALID,63.2661,VALID,845.187,VALID,24.7494,VALID,203,VALID,1.27945,
2000-01-27, 12:05:00,VALID,0,VALID,61.5215,VALID,896.503,VALID,24.6565,VALID,145,VALID,2.21727,
2000-01-27, 12:06:00,VALID,0,VALID,61.6843,VALID,1004.84,VALID,24.4278,VALID,118,VALID,3.29238,
2000-01-27, 12:07:00,VALID,0,VALID,62.0073,VALID,909.256,VALID,24.3013,VALID,110,VALID,1.84756,
2000-01-27, 12:08:00,VALID,0,VALID,61.0319,VALID,1034.47,VALID,24.3887,VALID,142,VALID,1.82207,
2000-01-27, 12:09:00,VALID,0,VALID,60.1825,VALID,1128.38,VALID,24.6122,VALID,198,VALID,0.991554,
2000-01-27, 12:10:01,VALID,0,VALID,62.3786,VALID,1091.29,VALID,24.6992,VALID,94,VALID,1.68329,
2000-01-27, 12:11:00,VALID,0,VALID,63.1682,VALID,1069.49,VALID,24.9063,VALID,108,VALID,2.88936,
2000-01-27, 12:12:00,VALID,0,VALID,60.3999,VALID,1057.48,VALID,24.9153,VALID,96,VALID,2.35195,
2000-01-27, 12:13:00,VALID,0,VALID,61.8114,VALID,1058.87,VALID,25.0506,VALID,125,VALID,1.27673,
2000-01-27, 12:14:00,VALID,0,VALID,64.0571,VALID,1048.43,VALID,25.3557,VALID,113,VALID,2.90176,
2000-01-27, 12:15:00,VALID,0,VALID,60.6123,VALID,1054.85,VALID,25.5009,VALID,149,VALID,1.97276,
2000-01-27, 12:16:00,VALID,0,VALID,59.6764,VALID,1044.25,VALID,25.3236,VALID,106,VALID,2.78065,
2000-01-27, 12:17:00,VALID,0,VALID,63.1809,VALID,1032.52,VALID,25.2997,VALID,93,VALID,2.00697,
2000-01-27, 12:18:00,VALID,0,VALID,59.5136,VALID,1023.72,VALID,25.4327,VALID,128,VALID,2.31816,
2000-01-27, 12:19:00,VALID,0,VALID,60.4724,VALID,1012.97,VALID,25.4029,VALID,88,VALID,2.33326,
2000-01-27, 12:20:00,VALID,0,VALID,61.2189,VALID,1001.7,VALID,25.5149,VALID,95,VALID,2.2834,
2000-01-27, 12:21:00,VALID,0,VALID,60.7878,VALID,993.939,VALID,25.776,VALID,98,VALID,1.15393,
2000-01-27, 12:22:01,VALID,0,VALID,58.5994,VALID,1001.39,VALID,25.9866,VALID,156,VALID,1.63922,
2000-01-27, 12:23:00,VALID,0,VALID,59.5848,VALID,1008.63,VALID,26.0348,VALID,155,VALID,1.34671,
2000-01-27, 12:24:00,VALID,0,VALID,58.9834,VALID,1017.44,VALID,25.9083,VALID,133,VALID,2.38066,
2000-01-27, 12:25:00,VALID,0,VALID,60.1876,VALID,1031.69,VALID,25.7889,VALID,155,VALID,1.81723,
2000-01-27, 12:26:00,VALID,0,VALID,59.548,VALID,1045.15,VALID,25.8151,VALID,141,VALID,3.38379,
2000-01-27, 12:27:00,VALID,0,VALID,58.8677,VALID,797.59,VALID,25.4172,VALID,173,VALID,3.9016,
2000-01-27, 12:28:00,VALID,0,VALID,61.3447,VALID,906.42,VALID,24.9481,VALID,158,VALID,2.90164,
2000-01-27, 12:29:00,VALID,0,VALID,61.8941,VALID,989.982,VALID,24.8543,VALID,184,VALID,2.32707,
2000-01-27, 12:30:00,VALID,0,VALID,62.4421,VALID,999.016,VALID,24.8569,VALID,129,VALID,2.96582,
2000-01-27, 12:31:00,VALID,0,VALID,63.963,VALID,984.769,VALID,24.931,VALID,143,VALID,2.57113,
2000-01-27, 12:32:01,VALID,0,VALID,59.4679,VALID,1037.44,VALID,25.0448,VALID,201,VALID,2.90117,
2000-01-27, 12:33:00,VALID,0,VALID,60.372,VALID,1047.41,VALID,24.9572,VALID,211,VALID,1.88788,
2000-01-27, 12:34:00,VALID,0,VALID,61.2532,VALID,993.158,VALID,25.0189,VALID,213,VALID,2.32772,
2000-01-27, 12:35:00,VALID,0,VALID,61.594,VALID,522.636,VALID,25.0804,VALID,194,VALID,1.38007,
2000-01-27, 12:36:00,VALID,0,VALID,61.5876,VALID,781.05,VALID,25.1114,VALID,178,VALID,1.61348,
2000-01-27, 12:37:00,VALID,0,VALID,61.6181,VALID,1051.96,VALID,25.1858,VALID,215,VALID,1.46957,
2000-01-27, 12:38:00,VALID,0,VALID,61.9233,VALID,1097.15,VALID,25.3347,VALID,157,VALID,1.76328,
2000-01-27, 12:39:00,VALID,0,VALID,60.7191,VALID,863.492,VALID,25.467,VALID,161,VALID,1.67821,
2000-01-27, 12:40:00,VALID,0,VALID,61.107,VALID,1031.89,VALID,25.4155,VALID,105,VALID,3.248,
2000-01-27, 12:41:00,VALID,0,VALID,61.299,VALID,275.82,VALID,25.2884,VALID,112,VALID,2.85811,
2000-01-27, 12:42:00,VALID,0,VALID,60.8628,VALID,422.636,VALID,25.1428,VALID,97,VALID,2.71875,
2000-01-27, 12:43:00,VALID,0,VALID,60.7585,VALID,886.722,VALID,24.9529,VALID,140,VALID,2.49918,
2000-01-27, 12:44:01,VALID,0,VALID,61.9805,VALID,1069.2,VALID,24.8103,VALID,114,VALID,2.5877,
2000-01-27, 12:45:00,VALID,0,VALID,62.7308,VALID,1091.09,VALID,24.8429,VALID,109,VALID,2.48395,
2000-01-27, 12:46:00,VALID,0,VALID,59.9625,VALID,600.255,VALID,25.072,VALID,171,VALID,1.54507,
2000-01-27, 12:47:00,VALID,0,VALID,62.5884,VALID,1132.86,VALID,25.2146,VALID,130,VALID,1.50781,
2000-01-27, 12:48:00,VALID,0,VALID,60.7102,VALID,693.005,VALID,25.3961,VALID,128,VALID,2.27656,
2000-01-27, 12:49:00,VALID,0,VALID,61.4681,VALID,810.92,VALID,25.3117,VALID,140,VALID,2.19408,
2000-01-27, 12:50:00,VALID,0,VALID,58.9351,VALID,1039.21,VALID,25.2392,VALID,137,VALID,2.17246,
2000-01-27, 12:51:00,VALID,0,VALID,62.0759,VALID,357.99,VALID,25.1804,VALID,122,VALID,1.80046,
2000-01-27, 12:52:00,VALID,0,VALID,61.4376,VALID,644.524,VALID,25.1545,VALID,164,VALID,1.16727,
2000-01-27, 12:53:00,VALID,0,VALID,59.0266,VALID,569.096,VALID,25.3033,VALID,215,VALID,0.576014,
2000-01-27, 12:54:00,VALID,0,VALID,59.3432,VALID,678.163,VALID,25.4194,VALID,188,VALID,1.98281,
2000-01-27, 12:55:00,VALID,0,VALID,60.7115,VALID,1120.94,VALID,25.3839,VALID,195,VALID,2.06599,
2000-01-27, 12:56:00,VALID,0,VALID,61.8801,VALID,1093.11,VALID,25.4424,VALID,175,VALID,1.92617,
2000-01-27, 12:57:00,VALID,0,VALID,60.6899,VALID,762.236,VALID,25.5385,VALID,191,VALID,2.14253,
2000-01-27, 12:58:00,VALID,0,VALID,62.8847,VALID,346.001,VALID,25.5197,VALID,135,VALID,2.13842,
2000-01-27, 12:59:00,VALID,0,VALID,59.7934,VALID,489.422,VALID,25.39,VALID,139,VALID,2.52154,
2000-01-27, 13:00:00,VALID,0,VALID,59.5454,VALID,1204.35,VALID,25.2227,VALID,220,VALID,2.0459,
2000-01-27, 13:01:00,VALID,0,VALID,60.1126,VALID,513.161,VALID,25.2697,VALID,259,VALID,1.06003,
2000-01-27, 13:02:00,VALID,0,VALID,59.4234,VALID,517.559,VALID,25.3651,VALID,220,VALID,1.40975,
2000-01-27, 13:03:00,VALID,0,VALID,60.7471,VALID,1184.82,VALID,25.4162,VALID,175,VALID,2.0587,
2000-01-27, 13:04:00,VALID,0,VALID,61.1896,VALID,998.473,VALID,25.4353,VALID,152,VALID,2.52464,
2000-01-27, 13:05:00,VALID,0,VALID,61.0955,VALID,411.276,VALID,25.4065,VALID,156,VALID,2.58425,
2000-01-27, 13:06:00,VALID,0,VALID,62.0708,VALID,407.676,VALID,25.2127,VALID,167,VALID,3.10391,
2000-01-27, 13:07:00,VALID,0,VALID,61.9818,VALID,399.882,VALID,24.8498,VALID,117,VALID,4.29975,
2000-01-27, 13:08:00,VALID,0,VALID,61.1833,VALID,905.995,VALID,24.6208,VALID,101,VALID,1.81758,
2000-01-27, 13:09:00,VALID,0,VALID,62.6558,VALID,389.54,VALID,24.7922,VALID,122,VALID,1.23564,
2000-01-27, 13:10:00,VALID,0,VALID,62.7244,VALID,868.841,VALID,24.9113,VALID,131,VALID,1.95553,
2000-01-27, 13:11:00,VALID,0,VALID,62.7397,VALID,933.436,VALID,25.0542,VALID,127,VALID,2.6837,
2000-01-27, 13:12:00,VALID,0,VALID,61.4732,VALID,1031.52,VALID,25.149,VALID,145,VALID,3.43926,
2000-01-27, 13:13:00,VALID,0,VALID,62.226,VALID,1015.4,VALID,25.1157,VALID,161,VALID,2.06682,
2000-01-27, 13:14:00,VALID,0,VALID,61.2634,VALID,1010.41,VALID,25.2489,VALID,177,VALID,2.24375,
2000-01-27, 13:15:00,VALID,0,VALID,60.5296,VALID,1023.4,VALID,25.3004,VALID,171,VALID,2.46052,
2000-01-27, 13:16:01,VALID,0,VALID,62.0467,VALID,1049.76,VALID,25.2089,VALID,142,VALID,3.31951,
2000-01-27, 13:17:01,VALID,0,VALID,60.6657,VALID,751.555,VALID,25.0678,VALID,154,VALID,3.39907,
2000-01-27, 13:18:00,VALID,0,VALID,60.9277,VALID,886.773,VALID,25.0242,VALID,178,VALID,1.5834,
2000-01-27, 13:19:00,VALID,0,VALID,60.0706,VALID,620.7,VALID,25.1118,VALID,165,VALID,1.44613,
2000-01-27, 13:20:00,VALID,0,VALID,61.8915,VALID,738.327,VALID,25.1768,VALID,199,VALID,1.89863,
2000-01-27, 13:21:00,VALID,0,VALID,62.788,VALID,799.559,VALID,25.2671,VALID,112,VALID,1.48353,
2000-01-27, 13:22:00,VALID,0,VALID,60.9633,VALID,976.856,VALID,25.3832,VALID,132,VALID,2.64904,
2000-01-27, 13:23:00,VALID,0,VALID,62.6609,VALID,972.747,VALID,25.4447,VALID,143,VALID,2.03104,
2000-01-27, 13:24:00,VALID,0,VALID,61.9004,VALID,747.496,VALID,25.4748,VALID,161,VALID,3.36152,
2000-01-27, 13:25:00,VALID,0,VALID,62.1459,VALID,961.421,VALID,25.2344,VALID,176,VALID,2.93072,
2000-01-27, 13:26:00,VALID,0,VALID,62.5693,VALID,959.841,VALID,25.2677,VALID,187,VALID,1.20352,
2000-01-27, 13:27:00,VALID,0,VALID,60.3885,VALID,936.646,VALID,25.3767,VALID,165,VALID,2.28948,
2000-01-27, 13:28:01,VALID,0,VALID,60.461,VALID,970.862,VALID,25.3301,VALID,170,VALID,3.85477,
2000-01-27, 13:29:00,VALID,0,VALID,59.4195,VALID,988.098,VALID,25.0471,VALID,181,VALID,2.89274,
2000-01-27, 13:30:00,VALID,0,VALID,61.8013,VALID,1009.92,VALID,25.0701,VALID,142,VALID,2.15039,
2000-01-27, 13:31:00,VALID,0,VALID,62.5642,VALID,1034.76,VALID,25.2515,VALID,104,VALID,3.12623,
2000-01-27, 13:32:00,VALID,0,VALID,59.0686,VALID,1001.1,VALID,25.4486,VALID,102,VALID,3.34023,
2000-01-27, 13:33:00,VALID,0,VALID,59.7896,VALID,738.072,VALID,25.6103,VALID,114,VALID,2.05997,
2000-01-27, 13:34:00,VALID,0,VALID,59.2441,VALID,1068.13,VALID,25.8019,VALID,144,VALID,1.73157,
2000-01-27, 13:35:00,VALID,0,VALID,61.4579,VALID,1031.31,VALID,25.9811,VALID,137,VALID,0.947635,
2000-01-27, 13:36:00,VALID,0,VALID,60.1494,VALID,479.471,VALID,26.2954,VALID,94,VALID,2.55664,
2000-01-27, 13:37:00,VALID,0,VALID,58.1721,VALID,943.964,VALID,26.3041,VALID,136,VALID,3.03968,
2000-01-27, 13:38:01,VALID,0,VALID,57.8288,VALID,1001.44,VALID,26.029,VALID,119,VALID,3.08242,
2000-01-27, 13:39:01,VALID,0,VALID,58.5205,VALID,619.834,VALID,25.9323,VALID,140,VALID,2.51816,
2000-01-27, 13:40:00,VALID,0,VALID,56.8496,VALID,788.658,VALID,25.7475,VALID,140,VALID,2.57792,
2000-01-27, 13:41:00,VALID,0,VALID,58.7049,VALID,851.521,VALID,25.644,VALID,166,VALID,1.5815,
2000-01-27, 13:42:00,VALID,0,VALID,58.6464,VALID,341.094,VALID,25.6569,VALID,132,VALID,2.69434,
2000-01-27, 13:43:00,VALID,0,VALID,59.6268,VALID,718.968,VALID,25.4693,VALID,117,VALID,2.29996,
2000-01-27, 13:44:00,VALID,0,VALID,60.3453,VALID,980.405,VALID,25.4728,VALID,109,VALID,3.14453,
2000-01-27, 13:45:00,VALID,0,VALID,58.7316,VALID,984.735,VALID,25.4013,VALID,95,VALID,3.59755,
2000-01-27, 13:46:00,VALID,0,VALID,59.0915,VALID,952.098,VALID,25.5401,VALID,109,VALID,1.99179,
2000-01-27, 13:47:00,VALID,0,VALID,59.7209,VALID,640.347,VALID,25.9352,VALID,121,VALID,1.4394,
2000-01-27, 13:48:00,VALID,0,VALID,57.2019,VALID,1012.47,VALID,26.1096,VALID,80,VALID,3.51523,
2000-01-27, 13:49:00,VALID,0,VALID,57.1128,VALID,632.893,VALID,26.2749,VALID,99,VALID,2.98746,
2000-01-27, 13:50:01,VALID,0,VALID,57.24,VALID,860.877,VALID,26.2911,VALID,113,VALID,2.37188,
2000-01-27, 13:51:00,VALID,0,VALID,56.7237,VALID,1033.89,VALID,26.2484,VALID,111,VALID,2.61043,
2000-01-27, 13:52:00,VALID,0,VALID,55.8819,VALID,1040.26,VALID,26.2426,VALID,121,VALID,2.63401,
2000-01-27, 13:53:00,VALID,0,VALID,57.8695,VALID,1048.23,VALID,26.5206,VALID,162,VALID,1.5435,
2000-01-27, 13:54:00,VALID,0,VALID,53.7558,VALID,1054.54,VALID,26.4167,VALID,150,VALID,5.0582,
2000-01-27, 13:55:00,VALID,0,VALID,56.6207,VALID,779.301,VALID,25.8216,VALID,124,VALID,3.78947,
2000-01-27, 13:56:00,VALID,0,VALID,56.9374,VALID,669.996,VALID,25.6081,VALID,112,VALID,2.69297,
2000-01-27, 13:57:00,VALID,0,VALID,57.3303,VALID,897.012,VALID,25.5699,VALID,102,VALID,3.22356,
2000-01-27, 13:58:00,VALID,0,VALID,58.4162,VALID,664.137,VALID,25.6411,VALID,112,VALID,3.1877,
2000-01-27, 13:59:00,VALID,0,VALID,58.6286,VALID,402.514,VALID,25.7151,VALID,163,VALID,3.31482,
2000-01-27, 14:00:00,VALID,0,VALID,59.6115,VALID,424.589,VALID,25.6728,VALID,91,VALID,2.69707,
2000-01-27, 14:01:01,VALID,0,VALID,57.7754,VALID,369.129,VALID,25.6695,VALID,124,VALID,1.99815,
2000-01-27, 14:02:00,VALID,0,VALID,58.3934,VALID,451.639,VALID,25.6113,VALID,132,VALID,2.42832,
2000-01-27, 14:03:00,VALID,0,VALID,61.1298,VALID,667.075,VALID,25.3712,VALID,98,VALID,2.56588,
2000-01-27, 14:04:00,VALID,0,VALID,60.5449,VALID,366.073,VALID,25.4725,VALID,113,VALID,2.40345,
2000-01-27, 14:05:00,VALID,0,VALID,59.2746,VALID,270.844,VALID,25.4948,VALID,149,VALID,2.2046,
2000-01-27, 14:06:00,VALID,0,VALID,60.1189,VALID,267.771,VALID,25.291,VALID,103,VALID,3.05254,
2000-01-27, 14:07:00,VALID,0,VALID,62.2603,VALID,657.498,VALID,25.1519,VALID,135,VALID,2.26007,
2000-01-27, 14:08:00,VALID,0,VALID,61.7186,VALID,920.48,VALID,25.2137,VALID,150,VALID,2.70215,
2000-01-27, 14:09:00,VALID,0,VALID,60.1037,VALID,926.848,VALID,25.3428,VALID,103,VALID,2.33594,
2000-01-27, 14:10:00,VALID,0,VALID,57.5337,VALID,621.464,VALID,25.5628,VALID,97,VALID,2.48738,